Location: Elsworth
(52.2500°N, 0.0667°W)
Time: 11:22:37
(UTC+00:00)

Daily predictions for brighter satellites

Satellite Brightness Start Highest point End
(mag) Time Altitude Azimuth Time Altitude Azimuth Time Altitude Azimuth
Cosmos 2360 Rocket 3.2 20:18:13 10° NNW 20:23:27 36° NE 20:28:40 10° ESE
Cosmos 2016 Rocket 4.0 20:18:50 10° S 20:25:04 76° E 20:31:15 10° NNE
Cosmos 2173 Rocket 4.4 20:18:58 10° SSW 20:25:07 70° WNW 20:31:23 10° N
Cosmos 1461 4.0 20:23:30 10° SSE 20:26:10 19° ESE 20:28:50 10° ENE
CZ-4B R/B 3.5 20:22:28 10° S 20:28:07 74° WSW 20:33:44 10° NNW
CZ-4C R/B 2.3 20:25:01 10° WSW 20:29:24 69° NW 20:35:10 10° NE
CZ-4B R/B 4.3 20:26:20 10° SE 20:30:38 35° ENE 20:35:01 10° N
Cosmos 1992 Rocket 4.3 20:26:10 10° S 20:31:07 46° ESE 20:36:05 10° NE
ISS -3.8 20:32:33 10° WSW 20:35:53 71° S 20:39:13 10° E
Cosmos 2219 Rocket 3.5 20:31:44 10° NNW 20:36:47 31° NE 20:41:48 10° ESE
Cosmos 1437 Rocket 3.6 20:37:17 10° SSE 20:40:18 27° E 20:43:22 10° NE
SL-08 R/B 3.3 20:39:08 10° NNE 20:43:59 76° ESE 20:48:43 10° S
DEBRIS 3.4 20:43:01 10° WSW 20:45:54 55° SSE 20:53:55 10° E
Cosmos 1626 Rocket 3.6 20:41:48 10° N 20:46:09 71° ENE 20:50:32 10° SSE
Cosmos 1743 4.2 20:44:09 10° NNW 20:46:45 26° W 20:49:20 10° SSW
Cosmos 2098 Rocket 4.4 20:44:34 10° SE 20:48:17 24° E 20:51:38 10° NE
Cosmos 1452 Rocket 4.3 20:43:16 10° SW 20:48:24 56° WNW 20:53:34 10° NNE
NOSS 3-3 (A) 3.7 20:43:52 10° SSW 20:49:03 66° SE 20:55:19 10° NE
Terra 3.0 20:48:14 10° SSW 20:52:40 40° W 20:57:07 10° NNW
Cosmos 2151 3.0 20:50:04 10° N 20:54:10 63° ENE 20:58:09 10° SSE
Cosmos 2322 Rocket 2.6 20:49:54 10° NNW 20:55:30 57° NE 21:00:46 12° SE
Cosmos 1486 Rocket 4.4 20:50:35 10° NNW 20:55:46 55° ENE 21:00:35 12° SE
Helios 1A Rocket 3.7 20:52:56 10° N 20:55:56 40° WNW 20:58:54 10° SW
Cosmos 1302 Rocket 4.3 20:52:00 10° SSW 20:57:10 72° WNW 21:02:23 10° NNE
Cosmos 1607 4.1 20:52:02 10° SW 20:58:14 81° NW 21:04:34 10° NE
IRS-1C Rocket 4.4 20:53:40 10° SE 20:58:44 57° ENE 21:03:54 10° N
Cosmos 909 Rocket 4.0 20:53:15 10° SSW 20:59:30 73° SE 21:06:04 10° NE
Cosmos 2061 Rocket 4.0 20:53:54 10° S 21:00:09 86° E 21:06:30 10° N
Cosmos 2082 Rocket 2.4 20:55:31 10° SW 21:01:14 78° WNW 21:06:59 10° NNE
USA 306 1.7 20:59:20 10° W 21:02:24 67° NNW 21:04:23 10° ENE
CZ-4B R/B 2.4 21:09:42 14° SSE 21:12:34 82° ENE 21:16:05 10° NNW
USA 186 2.7 21:11:22 10° SSW 21:13:54 35° W 21:16:30 10° NNW
Okean O Rocket 2.5 21:12:10 10° S 21:16:17 45° W 21:20:26 10° NNW
Cosmos 2228 4.2 21:16:00 10° SW 21:19:53 40° WNW 21:23:48 10° N
Cosmos 1805 2.9 21:16:57 10° N 21:20:12 58° ENE 21:22:21 19° SSE
NOSS 3-3 (C) 3.8 21:15:36 10° SW 21:20:56 85° SE 21:27:27 10° NE
Cosmos 2278 3.8 21:15:51 10° NNW 21:21:35 79° WSW 21:26:23 15° SSE
Meteor 1-5 Rocket 4.4 21:18:46 10° N 21:24:30 70° ENE 21:29:21 15° SSE
COSMOS 2428 4.3 21:19:39 10° NNW 21:24:31 28° NE 21:29:21 10° E
SL-16 R/B 2.6 21:20:29 10° NW 21:26:04 60° WSW 21:30:55 14° S
Okean 1-7 Rocket 3.7 21:22:50 10° N 21:27:17 62° ENE 21:30:35 18° SSE
Cosmos 1544 Rocket 3.7 21:23:33 10° SSW 21:27:54 77° WNW 21:32:14 10° N
CZ-2C R/B 1.9 21:27:13 23° SSE 21:28:47 67° ENE 21:31:33 10° N
NOSS 3 (A) 4.4 21:28:21 10° NW 21:30:33 53° SW 21:31:48 25° SSE
NOSS 3-4 (A) 3.9 21:25:47 10° NW 21:32:22 77° SW 21:38:39 17° SE
NOSS 3-4 (C) 3.9 21:26:24 10° NW 21:33:01 78° SW 21:39:18 17° SE
Cosmos-2242 4.4 21:34:03 16° ESE 21:35:46 21° E 21:38:52 10° NE
Cosmos 1891 Rocket 4.5 21:30:59 10° S 21:37:07 88° WNW 21:43:11 10° N
Okean-O 4.2 21:33:28 10° SSW 21:37:20 30° W 21:41:13 10° NNW
Cosmos 1933 3.4 21:37:18 10° SSW 21:41:04 69° WNW 21:44:54 10° N
Ariane Rocket 3.2 21:38:06 15° S 21:42:20 70° WSW 21:47:26 10° NNW
COSMOS 2406 3.4 21:36:38 10° SW 21:42:23 78° WNW 21:48:10 10° NNE
ATLAS 2AS CENTAUR R/B 4.5 21:37:15 10° WNW 21:43:22 33° N 21:49:28 10° NE
SPOT 3 Rocket 4.1 21:41:43 12° S 21:46:22 52° W 21:51:24 10° NNW
Nadezhda 4 Rocket 4.0 21:45:17 10° N 21:51:27 89° W 21:56:12 18° S
Cosmos 2333 Rocket 3.0 21:48:36 10° NW 21:53:57 43° WSW 21:58:17 15° S
Cosmos 1825 Rocket 3.5 21:52:08 10° NNW 21:56:30 84° W 21:59:17 22° S
Helios 1B rocket 3.4 21:55:11 19° ESE 21:56:50 28° ENE 21:59:54 10° N
Cosmos 1763 Rocket 3.8 21:53:12 18° S 21:56:52 48° ESE 22:01:56 10° NE
Cosmos 1470 4.5 21:54:45 10° NNE 21:56:54 16° ENE 21:58:12 13° E
Cosmos 1536 3.7 21:54:14 10° N 21:57:35 32° ENE 21:59:12 22° ESE
Okean 1 3.0 21:56:18 26° S 21:58:09 64° E 22:01:44 10° NNE
Cosmos 1707 3.2 21:59:51 24° E 22:00:03 25° E 22:02:26 10° NE
Cosmos 1461 3.0 21:58:25 10° SW 22:02:05 62° NW 22:05:45 10° NE
Cosmos 1833 4.4 21:57:58 16° S 22:02:14 50° ESE 22:07:40 10° NE
Cosmos 1953 Rocket 3.6 21:58:14 10° N 22:02:36 69° ENE 22:04:56 26° SSE
Cosmos 44 3.6 21:57:51 10° NW 22:03:18 75° NE 22:06:56 21° SE
Cosmos 990 Rocket 3.9 21:58:29 10° NNW 22:03:41 89° ENE 22:06:54 24° SSE
Cosmos 2360 Rocket 2.6 22:02:10 10° NW 22:07:43 55° WSW 22:11:23 21° S
CZ-4B R/B 4.4 22:05:27 14° SSW 22:09:13 39° W 22:13:46 10° NNW
Cosmos 2322 4.3 22:04:07 10° NNW 22:09:40 49° NE 22:13:47 18° ESE
Cosmos 2195 Rocket 4.5 22:03:25 10° N 22:09:41 87° ENE 22:13:53 22° S
ISS -3.9 22:09:17 10° W 22:12:38 75° S 22:14:19 27° ESE
USA 290 2.0 22:12:10 27° SSW 22:13:45 88° ESE 22:16:54 10° NNE
BREEZE-M DEB (TANK) 2.3 22:11:43 10° WSW 22:13:11 28° SW 22:13:11 28° SW
Cosmos 2026 Rocket 4.0 22:07:38 10° N 22:14:04 80° ENE 22:18:17 23° SSE
Cosmos 2058 Rocket 3.5 22:14:25 28° SSE 22:16:14 44° E 22:20:22 10° NNE
CZ-4C R/B 4.2 22:14:07 10° WNW 22:18:37 31° N 22:24:18 10° NE
Helios 1A 3.0 22:17:13 10° NNE 22:21:03 51° E 22:22:30 33° SSE
Cosmos 2219 Rocket 2.3 22:15:32 10° NW 22:21:10 67° WSW 22:24:29 25° SSE
Cosmos 1975 4.1 22:20:55 10° N 22:24:04 26° ENE 22:25:24 21° ESE
Cosmos 2098 Rocket 4.0 22:20:59 10° SSW 22:25:26 45° WNW 22:29:23 10° N
KORONAS-FOTON 4.2 22:25:06 34° ESE 22:25:42 37° E 22:28:52 10° NNE
Cosmos 1076 Rocket 3.8 22:21:36 10° NNW 22:25:48 58° W 22:28:03 25° SSW
USA 306 3.2 22:27:21 10° WNW 22:28:32 21° WNW 22:28:32 21° WNW
RESURS DK-1 2.8 22:26:45 10° NNW 22:30:38 50° NE 22:32:35 26° ESE
ARIANE 5 R/B 3.3 22:32:16 25° SE 22:34:26 44° ENE 22:38:41 10° N
ALOS 2 3.5 22:33:58 23° ESE 22:36:07 38° ENE 22:40:12 10° N
Cosmos 2322 Rocket 3.4 22:34:20 10° NW 22:39:16 32° WSW 22:42:34 18° SSW
Cosmos 1354 Rocket 4.5 22:35:59 10° NNW 22:41:03 50° WSW 22:43:43 26° S
Cosmos 1766 3.1 22:41:50 10° NNW 22:45:00 54° W 22:45:46 41° SSW
SL-16 R/B 4.5 22:41:05 10° NNW 22:45:15 20° NNE 22:49:22 10° ENE
Cosmos 372 Rocket 3.9 22:40:16 10° NNW 22:45:25 90° WSW 22:47:53 31° SSE
Cosmos 1271 Rocket 3.0 22:46:13 38° ESE 22:46:36 39° E 22:49:47 10° NNE
Cosmos 1842 3.0 22:47:39 47° ESE 22:47:55 49° E 22:50:59 10° NNE
Cosmos 1726 Rocket 4.4 22:49:27 18° SW 22:52:09 41° WNW 22:56:01 10° N
Meteor 2-9 Rocket 4.3 22:47:47 10° N 22:53:10 67° ENE 22:55:56 30° SSE
Spot 4 4.0 22:51:57 31° SE 22:54:10 67° ENE 22:58:56 10° N
Cosmos 540 Rocket 3.7 22:52:54 16° SW 22:57:02 69° WNW 23:02:11 10° NNE
Cosmos 2237 Rocket 3.0 22:52:37 10° NNW 22:58:07 46° NE 23:02:17 17° ESE
Aureole 1 Rocket 4.2 22:53:35 10° NNW 22:59:11 60° WSW 23:02:46 27° S
BREEZE-M DEB (TANK) 4.5 22:43:08 10° SW 23:00:30 60° SSE 23:04:42 10° ENE
Cosmos 1092 Rocket 4.3 22:55:25 10° NNW 23:01:27 59° W 23:05:07 24° SSW
Cosmos 1980 4.3 22:56:47 10° NNW 23:02:19 52° NE 23:06:12 19° ESE
CZ-2C R/B 3.9 22:58:57 16° ESE 23:02:22 32° ENE 23:06:56 10° N
Meteor 1-26 Rocket 4.5 22:59:42 21° SSW 23:03:28 66° WNW 23:09:11 10° N
ARGOS Delta rocket 4.4 22:59:21 10° NNE 23:04:22 50° E 23:06:31 32° SSE
Cosmos 1937 Rocket 3.5 23:01:51 10° NNW 23:07:01 79° ENE 23:09:26 32° SE
COSMOS 2428 2.7 23:03:40 10° NNW 23:09:24 81° WSW 23:12:10 32° SSE
Meteor 2-2 Rocket 4.4 23:05:51 23° SSW 23:09:30 70° WNW 23:15:19 10° N
Geosat 4.1 23:06:20 10° NNE 23:11:20 74° NW 23:15:10 17° SW
NOSS 0 Rocket 3.9 23:05:45 10° NNW 23:11:58 87° ENE 23:15:26 28° SSE
Cosmos-2242 3.7 23:10:18 24° SW 23:12:28 45° WNW 23:16:27 10° N
Cosmos 2227 Rocket 4.2 23:11:04 12° ESE 23:12:37 13° E 23:15:14 10° ENE
Meteor 1-11 Rocket 3.9 23:07:18 10° N 23:12:58 65° ENE 23:15:45 30° SSE
Cosmos 468 Rocket 4.0 23:10:30 25° SSW 23:13:40 84° WNW 23:18:58 10° NNE
MetOp-A 4.3 23:18:10 28° SE 23:20:29 54° ENE 23:25:01 10° N
Cosmos 1812 Rocket 3.7 23:25:18 41° SSE 23:26:38 63° E 23:31:02 10° NNE
Cosmos 1238 Rocket 4.2 23:25:54 24° ESE 23:26:56 27° E 23:30:36 10° NNE
Helios 1B rocket 3.4 23:29:08 25° WSW 23:29:48 26° W 23:32:49 10° NW
Cosmos 1470 3.0 23:27:53 10° NNW 23:31:01 40° W 23:31:24 39° WSW
USA 234 3.6 23:25:37 10° ENE 23:31:48 42° SE 23:34:29 29° S
Cosmos 1707 4.3 23:31:20 15° W 23:32:16 17° WNW 23:34:18 10° NNW
Cosmos 1536 4.3 23:29:42 10° NW 23:32:40 23° W 23:33:43 20° WSW
SeaSat 1 3.6 23:28:37 12° ESE 23:32:46 39° NE 23:37:19 10° NNW
CZ-2C R/B 3.8 23:27:46 10° NNE 23:33:20 47° E 23:35:48 30° SSE
ACS3 Solar Sail 3.4 23:29:47 10° NE 23:34:09 21° E 23:37:20 14° ESE
Meteor 1-27 Rocket 4.3 23:32:34 30° SSE 23:35:06 48° E 23:40:35 10° NNE
NOSS 8 (E) 4.3 23:32:26 10° NW 23:35:20 64° NE 23:35:47 54° E
ATLAS 2AS CENTAUR R/B 4.2 23:29:46 10° NW 23:36:00 36° NNE 23:42:12 10° E
Cosmos 2221 2.4 23:35:23 43° SSW 23:36:43 79° WNW 23:40:56 10° N
CZ-2C R/B 3.9 23:35:49 10° N 23:40:14 64° WNW 23:42:14 32° SW
Cosmos 1898 Rocket 4.0 23:35:27 10° NW 23:40:23 46° WSW 23:42:14 32° SSW
Cosmos 2279 Rocket 4.2 23:37:49 26° SSW 23:41:30 67° WNW 23:47:46 10° N
Cosmos 2297 Rocket 2.5 23:43:29 34° SSE 23:45:33 49° ESE 23:50:59 10° NE
ISS -1.7 23:46:11 10° W 23:47:15 17° W 23:47:15 17° W
Meteor 2-20 4.5 23:46:32 32° S 23:49:28 73° E 23:55:33 10° NNE
NOSS 8 (F) 4.0 23:48:32 10° NW 23:51:27 82° NE 23:51:35 78° E
SAR-Lupe-2 3.9 23:53:11 44° WSW 23:53:24 45° W 23:56:37 10° NNW
Cosmos 2322 4.5 23:48:31 10° NW 23:53:43 37° WSW 23:55:40 29° SSW
Meteor 2-10 Rocket 4.3 23:48:26 10° N 23:53:49 51° ENE 23:57:07 23° SE
GP-B 3.0 23:50:14 10° N 23:54:38 85° W 23:56:01 44° S
